Lid_Strength_Index
-0 -0 0 3 9 9 13 12 8 9 9 6 5 7 8 7 9 12 1 0 -0 -0 -1 -1 -1 -1 -1 -2 -1 -2 -2 -1 -2 -2 -2 -1 -1 -1 -1 -1 -1 -2 -1 -1 -1 -2 -2 -2 -2
0 1 2 6 11 13 13 10 10 9 7 5 6 6 7 9 5 4 3 0 -0 -0 -1 -1 -1 -2 -1 -1 -2 -2 -1 -1 -2 -1 -1 -1 -1 -1 -1 -1 -1 -2 -1 -2 -1 -2 -2 -2 -2
1 1 6 8 10 13 13 10 9 7 6 6 7 5 6 7 4 3 1 -0 -0 -0 -1 -1 -1 -2 -1 -1 -1 -1 -1 -1 -1 -1 -1 -1 -1 -1 -1 -1 -1 -1 -1 -2 -2 -2 -2 -2 -2
2 3 4 10 12 10 10 9 7 8 6 5 6 8 5 2 3 1 0 -0 -0 -0 -1 -1 -1 -1 -1 -1 -1 -2 -1 -1 -1 -1 -1 -1 -1 -1 -1 -1 -1 -1 -2 -1 -1 -2 -2 -2 -1
2 4 9 11 11 9 8 7 7 8 8 7 6 8 7 3 1 1 0 0 0 -0 -1 -1 -2 -1 -1 -1 -1 -1 -1 -1 -1 -1 -1 -1 -1 -1 -1 -1 -1 -1 -2 -2 -1 -1 -1 -1 -1
6 5 10 12 11 9 8 6 7 7 7 6 7 7 6 2 2 1 0 0 -0 -0 -1 -1 -1 -2 -1 -1 -1 -1 -1 -1 -1 -1 -1 -1 -1 -1 -1 -2 -1 -1 -1 -1 -1 -1 -1 -1 -1
7 7 10 11 11 11 9 6 7 7 7 7 5 8 5 3 1 1 0 -0 -0 -0 -1 -1 -1 -1 -1 -1 -1 -1 -1 -1 -1 -1 -1 -1 -1 -1 -1 -1 -2 -1 -1 -1 -1 -2 -1 -1 -1
5 6 10 9 11 11 7 6 6 7 8 4 4 8 8 3 1 1 0 0 -0 -0 -0 -1 -1 -1 -1 -1 -1 -1 -1 -1 -1 -1 -1 -1 -1 -1 -1 -1 -1 -1 -1 -1 -1 -1 -1 -1 -1
3 8 10 10 10 10 6 8 6 4 6 5 5 4 3 2 1 2 2 1 1 0 -0 -1 -1 -1 -1 -1 -1 -1 -1 -1 -1 -1 -1 -1 -1 -1 -2 -1 -1 -1 -1 -1 -1 -1 -1 -1 -1
5 8 9 7 7 8 7 7 7 7 7 7 6 4 3 2 2 3 3 3 2 1 1 -0 -0 -1 -1 -1 -1 -1 -1 -1 -2 -1 -1 -1 -1 -1 -1 -1 -1 -1 -1 -1 -1 -1 -1 -1 -1
6 8 7 7 6 6 7 7 6 7 8 7 7 5 4 3 3 3 3 2 2 1 0 -0 -0 -1 -1 -1 -1 -1 -1 -1 -1 -1 -1 -1 -1 -1 -2 -2 -2 -2 -1 -1 -1 -1 -1 -1 -1
7 6 6 6 6 6 7 6 7 7 6 4 4 4 4 4 4 3 3 2 2 1 1 -0 -0 -1 -1 -1 -1 -2 -1 -1 -1 -1 -1 -1 -0 -1 -1 -1 -1 -1 -1 -1 -1 -1 -1 -1 -1
6 6 6 6 6 6 6 7 7 7 5 4 4 4 4 4 3 3 2 2 1 2 1 0 -0 -0 -0 -0 -0 -1 -1 -1 -1 -1 -1 -1 -1 -1 -1 -1 -1 -1 -1 -1 -1 -1 -1 -1 -1
5 6 6 6 6 6 7 7 6 6 4 5 5 4 4 4 3 3 2 2 2 1 1 0 -0 -0 -0 -0 -1 -1 -1 -1 -1 -1 -2 -1 -1 -1 -1 -1 -1 -1 -0 -1 -1 -1 -1 -1 -1
5 8 7 7 7 7 6 9 8 5 5 5 5 5 4 4 3 3 2 2 2 1 1 1 0 -0 -0 -1 -1 -1 -1 -1 -1 -1 -1 -2 -2 -2 -1 -1 -0 -1 -1 -1 -1 -1 -1 -0 -1
7 7 10 7 7 7 7 11 7 5 6 6 5 5 4 4 3 2 2 1 1 1 1 0 0 -0 -0 -0 -1 -1 -1 -1 -1 -1 -1 -1 -2 -2 -1 -0 -0 -1 -1 -1 -0 -0 0 0 0
8 10 10 9 6 7 8 10 7 5 6 6 6 5 5 4 3 2 2 1 1 1 1 1 0 0 -0 -1 -1 -1 -1 -1 -1 -1 -1 -1 -1 -1 -1 -1 -1 -1 -1 -0 -0 0 0 1 1
10 10 9 9 8 7 9 9 7 6 6 6 6 5 5 4 4 2 2 1 1 1 0 0 0 -0 -0 -0 -0 -0 -0 -1 1 1 0 -1 -1 -1 -1 -1 -1 -1 -0 -0 -0 0 -0 0 1
8 9 9 7 6 8 9 9 8 7 6 7 6 6 5 4 3 2 2 1 1 1 1 1 1 0 0 1 1 1 1 0 0 -0 -1 -1 -0 -0 -0 -0 -0 -1 0 0 -0 0 1 1 0
8 9 9 7 7 8 9 9 8 7 7 6 6 6 5 4 4 3 2 2 2 1 1 1 1 0 0 0 -0 -0 0 -0 -0 -1 -1 -1 -1 -1 -1 -0 -0 -0 0 0 0 0 1 1 1
8 9 9 9 8 8 9 10 9 7 6 6 5 5 4 5 4 4 3 2 2 2 1 1 0 0 0 0 -0 0 -0 0 0 0 0 0 -1 -1 -1 -0 -0 -0 -0 1 1 0 1 2 1
9 8 9 9 9 10 8 12 10 9 8 7 6 5 5 4 4 3 3 3 2 2 1 1 0 0 0 -0 0 1 2 2 0 1 -0 -0 -1 -0 -0 -0 -0 -0 -0 0 1 0 1 1 2
9 8 9 9 9 10 10 11 9 9 10 8 7 6 5 4 4 4 3 3 2 2 1 1 1 0 0 0 1 1 2 1 0 0 -0 -0 -1 -1 -1 -1 -0 1 0 1 1 0 1 1 1
8 9 9 9 9 12 10 11 10 10 10 8 6 5 5 5 4 4 3 3 2 2 2 1 1 1 0 1 1 1 1 2 1 1 1 0 0 -0 -0 -1 -0 -0 0 0 0 -0 0 1 1
8 9 11 12 12 12 10 11 9 8 7 7 7 6 5 5 4 4 4 3 3 2 2 1 2 2 1 1 1 1 1 1 1 1 1 1 1 0 0 -0 -0 -0 -0 -0 -0 0 0 0 1
9 9 11 14 13 11 10 12 9 8 7 6 6 5 5 5 4 4 3 3 3 2 2 1 2 2 1 1 1 1 1 1 1 0 0 0 0 0 0 0 -0 -0 -1 -0 -0 0 0 0 1
9 10 9 11 11 12 11 10 8 7 8 7 7 6 6 5 5 4 3 3 3 2 2 2 1 1 1 1 1 2 2 3 3 2 2 2 2 2 2 2 2 1 1 -0 -0 0 0 0 0
8 8 11 10 14 15 13 13 11 10 9 8 8 7 6 5 4 4 3 3 2 2 1 1 1 1 1 1 2 2 3 2 3 3 3 3 2 2 2 1 1 2 2 1 1 1 1 0 0
8 9 10 9 10 13 14 12 8 8 8 8 7 7 6 5 5 4 3 3 2 2 2 2 1 1 2 2 2 2 2 3 3 2 3 3 3 3 2 1 -0 -0 -0 -0 -0 1 2 3 3
8 9 9 11 12 12 11 11 7 7 7 7 7 6 5 5 4 4 3 3 3 2 2 2 1 2 2 2 3 3 3 2 3 3 3 2 2 -0 -1 -0 -0 -0 -0 -0 -0 0 0 0 1